PDT,Max TemperatureF,Mean TemperatureF,Min TemperatureF,Max Dew PointF,MeanDew PointF,Min DewpointF,Max Humidity, Mean Humidity, Min Humidity, Max Sea Level PressureIn, Mean Sea Level PressureIn, Min Sea Level PressureIn, Max VisibilityMiles, Mean VisibilityMiles, Min VisibilityMiles, Max Wind SpeedMPH, Mean Wind SpeedMPH, Max Gust SpeedMPH,PrecipitationIn, CloudCover, Events, WindDirDegrees
2013-8-1,95,78,61,47,37,28,43,27,10,29.96,29.90,29.85,10,10,10,28,12,32,0.00,0,,249
2013-8-2,91,77,63,44,34,24,44,27,10,29.90,29.87,29.83,10,10,10,25,10,30,0.00,0,,237
2013-8-3,94,79,63,41,28,6,40,22,4,29.92,29.89,29.84,10,10,10,24,12,30,0.00,0,,236
2013-8-4,94,80,65,34,19,-14,28,15,1,29.94,29.90,29.85,10,10,10,28,11,33,0.00,0,,231
2013-8-5,96,80,64,30,13,-24,26,14,1,29.94,29.90,29.85,10,10,10,26,11,31,0.00,0,,240
2013-8-6,94,81,67,36,9,-35,21,11,1,29.96,29.91,29.87,10,10,10,33,16,37,0.00,0,,236
2013-8-7,90,78,66,43,30,17,31,19,7,29.99,29.95,29.92,10,10,10,29,15,35,0.00,0,,244
2013-8-8,89,76,62,42,31,18,42,25,7,29.94,29.90,29.85,10,10,10,24,12,31,0.00,0,,237
2013-8-9,89,76,63,39,28,12,31,19,7,29.91,29.87,29.84,10,10,10,26,11,33,0.00,0,,250
2013-8-10,90,76,61,47,38,12,40,26,11,29.96,29.92,29.89,10,10,10,22,10,28,0.00,0,,229
2013-8-11,93,77,60,45,40,34,49,32,14,29.95,29.91,29.84,10,10,10,20,8,23,0.00,0,,221
2013-8-12,97,79,61,42,38,33,43,27,11,29.92,29.89,29.84,10,10,10,18,8,24,0.00,0,,218
2013-8-13,100,82,63,41,34,20,36,21,5,29.94,29.89,29.83,10,10,10,23,8,28,0.00,0,,216
2013-8-14,101,83,64,37,29,20,28,17,5,29.92,29.87,29.82,10,10,10,20,8,26,0.00,0,,225
2013-8-15,102,84,65,41,32,25,23,16,9,29.92,29.88,29.83,10,10,10,28,10,33,0.00,0,,229
2013-8-16,99,86,72,49,42,31,31,23,15,29.93,29.90,29.84,10,10,10,29,11,33,0.00,0,,233
2013-8-17,101,89,76,45,36,28,26,17,8,29.93,29.86,29.77,10,10,10,29,13,33,0.00,0,,243
2013-8-18,103,84,65,57,47,35,45,30,14,29.97,29.86,29.76,10,8,2,26,7,29,T,3,Thunderstorm,82
2013-8-19,97,85,72,65,58,51,66,47,28,30.01,29.90,29.83,10,10,4,22,6,28,0.04,3,Rain-Thunderstorm,11
2013-8-20,98,83,68,53,44,32,59,36,13,29.88,29.85,29.80,10,10,10,24,9,26,0.00,0,,226
2013-8-21,101,87,72,42,37,30,34,23,12,29.91,29.86,29.81,10,10,10,29,8,33,0.00,0,,242
2013-8-22,100,84,68,39,35,29,31,21,11,29.92,29.86,29.80,10,10,10,28,9,35,0.00,0,,231
2013-8-23,98,81,63,41,29,22,29,18,6,29.85,29.80,29.73,10,10,10,25,8,31,0.00,0,,252
2013-8-24,98,77,56,37,26,16,32,19,5,29.86,29.81,29.74,10,10,10,24,9,44,0.00,0,,214
2013-8-25,95,77,59,40,30,21,35,22,9,30.02,29.89,29.81,10,10,10,29,9,35,0.00,0,,205
2013-8-26,91,77,63,60,50,28,54,37,20,29.99,29.92,29.85,10,10,10,20,6,24,0.00,1,,184
2013-8-27,92,80,67,62,58,55,73,54,34,29.90,29.84,29.77,10,10,10,22,7,24,0.00,1,,289
2013-8-28,98,83,68,57,54,50,61,43,24,29.91,29.84,29.79,10,10,10,25,7,29,0.00,0,,252
2013-8-29,101,86,70,52,50,47,49,34,18,29.97,29.92,29.88,10,10,10,18,6,22,0.00,1,,201
2013-8-30,98,85,71,63,55,46,54,38,22,29.99,29.95,29.88,10,10,10,25,10,30,T,1,Thunderstorm,196
2013-8-31,94,85,76,63,62,60,58,46,33,29.96,29.91,29.85,10,10,10,28,15,35,0.00,0,,238